Flag for United Kingdom Weather past 2 weeks in York, England, United Kingdom

Now
61 °F

Partly sunny.


Feels Like: 61 °F
Forecast: 47 / 54 °F
Wind: 6 mph from Southeast

Location: Linton-On-Ouse


UV Index: 0 (Low)

Visibility: N/A


Pressure: 30.07 "Hg

Humidity: 52%

Dew point: 43 °F

Location of YorkLocation

Historic Weather in York

°F

York temperature yesterday

Maximum temperature yesterday: 63 °F (at 2:50 PM)
Minimum temperature yesterday: 48 °F (at 5:50 AM)
Average temperature yesterday: 55 °F

Past Weeks' High & Low Weather Summary

 TemperatureHumidityPressure
High63 °F (Apr 16, 3:50 PM)100% (Apr 15, 6:50 AM)30.45 "Hg (Apr 15, 6:50 AM)
Low30 °F (Apr 15, 6:50 AM)32% (Apr 16, 4:50 PM)29.74 "Hg (Apr 22, 2:50 AM)
Average50 °F72%30.06 "Hg
* Reported Apr 9 1:50 PM — Apr 24 1:50 PM, York, Weather by CustomWeather, © 2014

Note: Actual official high and low records may vary slightly from our data, if they occured in-between our weather recording intervals... More about our weather records

Advertising

Historic Weather Conditions — Data for Previous 24 hours

 ConditionsComfort  
Time TempWeatherWind HumidityBarometerVisibility
1:50 PM
Apr 24
61 °FScattered clouds.6 mph48%30.09 "HgN/A
12:50 PM59 °FPassing clouds.5 mph63%30.09 "HgN/A
11:50 AM59 °FScattered clouds.5 mph63%30.09 "HgN/A
10:50 AM57 °FPartly sunny.5 mph72%30.12 "HgN/A
9:50 AM54 °FScattered clouds.3 mph82%30.12 "HgN/A
9:23 AM54 °FPartly sunny.3 mph82%30.12 "HgN/A
8:50 AM54 °FBroken clouds.2 mph82%30.12 "Hg4 mi
7:50 AM52 °FFog.1 mph94%30.09 "Hg2 mi
6:50 AM50 °FFog.1 mph94%30.09 "Hg2 mi
5:50 AM48 °FPassing clouds.No wind100%30.09 "Hg2 mi
4:50 AM48 °FPassing clouds.3 mph100%30.07 "Hg2 mi
3:50 AM50 °FPassing clouds.2 mph94%30.07 "Hg3 mi
2:50 AM50 °FPassing clouds.3 mph94%30.07 "Hg4 mi
1:50 AM52 °FPartly cloudy.6 mph94%30.07 "Hg2 mi
12:50 AM52 °FPartly cloudy.7 mph94%30.07 "Hg2 mi
11:50 PM
Apr 23
52 °FPassing clouds.7 mph94%30.07 "Hg2 mi
10:50 PM54 °FPartly cloudy.7 mph88%30.07 "Hg4 mi
9:50 PM54 °FPassing clouds.8 mph88%30.04 "HgN/A
8:50 PM55 °FPartly sunny.8 mph77%30.04 "HgN/A
7:50 PM57 °FPartly sunny.9 mph72%30.01 "HgN/A
6:50 PM57 °FPartly sunny.10 mph77%30.01 "HgN/A
5:50 PM61 °FPartly sunny.13 mph63%30.01 "HgN/A
4:50 PM61 °FSprinkles. Mostly cloudy.12 mph63%29.98 "HgN/A
3:50 PM63 °FBroken clouds.14 mph56%29.98 "HgN/A
Weather by CustomWeather, © 2014

See weather overview